Погода в Сет-Иле

Канада     50°12′40″N   66°22′32″W
темп.,
°C
ветер,
м/с
пор.,
м/с
влажн.,
%
обл.,
%
осадки,
мм/ч
давл.,
гПа
погр.,
м
4 июля, пн
пн423:00+10зсз412681 0.0 1008343
02:00+10зсз4116557 0.0 1008446
05:00+9зсз511663 0.0 1008931
08:00+11зсз61057100 0.0 10091150
11:00+13зсз71053100 0.0 10091197
14:00+16зсз6104797 0.0 10091327
17:00+16з4849100 0.0 10091289
20:00+14зсз611525 0.0 1010764
5 июля, вт
вт523:00+10зсз34654 0.0 101173
02:00+9зсз357034 0.0 1011108
05:00+9зсз36710 0.0 1010118
08:00+15з58500 0.0 1011975
11:00+18з58375 0.0 10101438
14:00+20зюз37387 0.0 10081814
17:00+20зсз1441100 0.0 10061809
20:00+15с1159100 0.0 100813
6 июля, ср
ср623:00+14ссз2251100 0.0 100726
02:00+13ссв3456100 0.0 100783
05:00+12ссз3562100 0.0 1008128
08:00+16с465096 0.0 1009438
11:00+18с2541100 0.0 10081726
14:00+19ссз583698 0.0 10101552
17:00+19сз683767 0.0 10101572
20:00+16сз59455 0.0 1012377
7 июля, чт
чт723:00+11сз34600 0.0 101363
02:00+10сз34620 0.0 101466
05:00+9сз34644 0.0 101673
08:00+16сз24476 0.0 1016486
11:00+18ююз44429 0.0 10151547
14:00+16ююз6753100 0.0 1015697
17:00+16ю4858100 0.0 1014343
20:00+15з246765 0.1 1013116
8 июля, пт
пт823:00+13св117199 0.0 101310
02:00+11всв228165 0.0 101538
05:00+11св2287100 0.0 101452
08:00+14вюв2274100 0.0 1014251
11:00+14ююз2480100 0.4 1013332
14:00+12ююз369791 2.5 1012353
17:00+16зсз157524 0.6 1012898
20:00+13ююз118880 0.6 101219